SWA2980 PHLI-PHNL

Flight info

Callsign SWA2980
Flight time 0h 21m
Altitude 13000
Route V15
Aircraft B38M/M-SADE2E3GHIJ4J7P2RWZ/LB1D1

Departure

Time 2026-04-24 05:57
Airport Lihue Airport (PHLI)

Arrival

Time 2026-04-24 06:19
Airport Daniel K. Inouye International Airport (PHNL)
Time Latitude Longitude Altitude Speed Heading
2026-04-24 05:24 21.97904 -159.34696 137 ft 0 kts 317°
2026-04-24 05:45 21.97895 -159.34686 137 ft 5 kts 317°
2026-04-24 05:46 21.97878 -159.34670 137 ft 2 kts 336°
2026-04-24 05:46 21.97866 -159.34668 138 ft 2 kts
2026-04-24 05:46 21.97853 -159.34669 138 ft 2 kts
2026-04-24 05:46 21.97841 -159.34669 139 ft 2 kts
2026-04-24 05:47 21.97828 -159.34671 139 ft 2 kts 28°
2026-04-24 05:47 21.97818 -159.34679 140 ft 2 kts 37°
2026-04-24 05:47 21.97808 -159.34687 140 ft 2 kts 37°
2026-04-24 05:47 21.97798 -159.34695 141 ft 2 kts 37°
2026-04-24 05:48 21.97788 -159.34704 141 ft 2 kts 40°
2026-04-24 05:48 21.97779 -159.34712 142 ft 2 kts 40°
2026-04-24 05:48 21.97771 -159.34719 142 ft 0 kts 40°
2026-04-24 05:53 21.97780 -159.34711 142 ft 6 kts 41°
2026-04-24 05:53 21.97792 -159.34689 141 ft 0 kts 85°
2026-04-24 05:54 21.97786 -159.34679 141 ft 6 kts 129°
2026-04-24 05:54 21.97736 -159.34631 142 ft 9 kts 141°
2026-04-24 05:54 21.97676 -159.34644 145 ft 10 kts 211°
2026-04-24 05:54 21.97622 -159.34698 148 ft 11 kts 225°
2026-04-24 05:55 21.97563 -159.34758 151 ft 12 kts 222°
2026-04-24 05:55 21.97495 -159.34828 155 ft 11 kts 227°
2026-04-24 05:55 21.97437 -159.34895 158 ft 13 kts 227°
2026-04-24 05:55 21.97380 -159.34942 161 ft 7 kts 192°
2026-04-24 05:56 21.97336 -159.34921 162 ft 9 kts 135°
2026-04-24 05:56 21.97302 -159.34882 162 ft 1 kts 122°
2026-04-24 05:56 21.97304 -159.34872 161 ft 4 kts 76°
2026-04-24 05:56 21.97316 -159.34854 160 ft 0 kts 41°
2026-04-24 05:57 21.97393 -159.34780 156 ft 50 kts 43°
2026-04-24 05:57 21.97890 -159.34257 178 ft 139 kts 44°
2026-04-24 05:57 21.98633 -159.33444 990 ft 159 kts 50°
2026-04-24 05:57 21.99060 -159.32220 1889 ft 196 kts 83°
2026-04-24 05:58 21.98662 -159.30706 2877 ft 230 kts 121°
2026-04-24 05:58 21.97314 -159.29563 3918 ft 261 kts 149°
2026-04-24 05:58 21.95551 -159.29011 5321 ft 275 kts 170°
2026-04-24 05:58 21.93655 -159.28578 6645 ft 278 kts 152°
2026-04-24 05:59 21.92143 -159.27341 8007 ft 276 kts 127°
2026-04-24 05:59 21.91102 -159.25571 9193 ft 285 kts 118°
2026-04-24 05:59 21.90077 -159.23692 10304 ft 297 kts 118°
2026-04-24 05:59 21.89020 -159.21719 11261 ft 312 kts 117°
2026-04-24 06:00 21.87922 -159.19646 12273 ft 324 kts 117°
2026-04-24 06:00 21.86792 -159.17497 12774 ft 332 kts 117°
2026-04-24 06:00 21.85654 -159.15326 12935 ft 336 kts 117°
2026-04-24 06:00 21.84481 -159.13078 12958 ft 353 kts 117°
2026-04-24 06:01 21.83265 -159.10748 12959 ft 361 kts 117°
2026-04-24 06:01 21.82026 -159.08379 12970 ft 365 kts 117°
2026-04-24 06:01 21.80796 -159.06026 12983 ft 366 kts 117°
2026-04-24 06:01 21.79547 -159.03642 12989 ft 366 kts 118°
2026-04-24 06:02 21.78214 -159.01259 12984 ft 367 kts 119°
2026-04-24 06:02 21.76910 -158.98939 12989 ft 367 kts 119°
2026-04-24 06:02 21.75596 -158.96595 12988 ft 367 kts 118°
2026-04-24 06:02 21.74271 -158.94241 12990 ft 367 kts 119°
2026-04-24 06:03 21.72949 -158.91902 12995 ft 367 kts 119°
2026-04-24 06:03 21.71623 -158.89552 12992 ft 367 kts 119°
2026-04-24 06:03 21.70303 -158.87215 12985 ft 366 kts 119°
2026-04-24 06:03 21.68978 -158.84870 12983 ft 367 kts 119°
2026-04-24 06:04 21.67654 -158.82527 12986 ft 367 kts 119°
2026-04-24 06:04 21.66331 -158.80186 12982 ft 367 kts 119°
2026-04-24 06:04 21.65041 -158.77906 12855 ft 358 kts 119°
2026-04-24 06:04 21.63762 -158.75647 12606 ft 349 kts 118°
2026-04-24 06:05 21.62520 -158.73453 12352 ft 339 kts 119°
2026-04-24 06:05 21.61314 -158.71322 12138 ft 330 kts 119°
2026-04-24 06:05 21.60136 -158.69244 11944 ft 320 kts 119°
2026-04-24 06:05 21.58998 -158.67234 11715 ft 312 kts 118°
2026-04-24 06:06 21.57871 -158.65247 11348 ft 310 kts 118°
2026-04-24 06:06 21.56753 -158.63274 11009 ft 307 kts 119°
2026-04-24 06:06 21.55645 -158.61321 10668 ft 305 kts 119°
2026-04-24 06:06 21.54547 -158.59387 10348 ft 302 kts 119°
2026-04-24 06:07 21.53453 -158.57462 10027 ft 300 kts 119°
2026-04-24 06:07 21.52371 -158.55556 9661 ft 297 kts 119°
2026-04-24 06:07 21.51299 -158.53669 9302 ft 295 kts 119°
2026-04-24 06:07 21.50234 -158.51795 8925 ft 293 kts 119°
2026-04-24 06:08 21.49176 -158.49931 8592 ft 290 kts 119°
2026-04-24 06:08 21.48128 -158.48092 8273 ft 288 kts 119°
2026-04-24 06:08 21.47086 -158.46263 7936 ft 286 kts 119°
2026-04-24 06:08 21.46050 -158.44439 7611 ft 284 kts 118°
2026-04-24 06:09 21.45026 -158.42640 7302 ft 282 kts 119°
2026-04-24 06:09 21.44006 -158.40850 6972 ft 280 kts 118°
2026-04-24 06:09 21.42993 -158.39073 6660 ft 278 kts 118°
2026-04-24 06:09 21.41991 -158.37311 6321 ft 276 kts 119°
2026-04-24 06:10 21.40992 -158.35558 5972 ft 275 kts 118°
2026-04-24 06:10 21.39996 -158.33813 5624 ft 273 kts 118°
2026-04-24 06:10 21.39009 -158.32081 5277 ft 272 kts 119°
2026-04-24 06:11 21.37042 -158.28633 4553 ft 270 kts 119°
2026-04-24 06:11 21.35992 -158.26969 4220 ft 270 kts 129°
2026-04-24 06:11 21.34659 -158.25562 4106 ft 269 kts 129°
2026-04-24 06:11 21.34276 -158.25059 4066 ft 267 kts 122°
2026-04-24 06:12 21.34126 -158.24828 4048 ft 266 kts 121°
2026-04-24 06:12 21.33273 -158.23335 4028 ft 265 kts 117°
2026-04-24 06:12 21.32603 -158.21525 3993 ft 259 kts 97°
2026-04-24 06:13 21.32501 -158.19677 4009 ft 240 kts 88°
2026-04-24 06:13 21.32513 -158.17978 4032 ft 214 kts 87°
2026-04-24 06:13 21.32518 -158.16425 4018 ft 207 kts 87°
2026-04-24 06:13 21.32520 -158.14885 3747 ft 204 kts 87°
2026-04-24 06:14 21.32522 -158.13388 3468 ft 197 kts 86°
2026-04-24 06:14 21.32522 -158.11939 3197 ft 191 kts 86°
2026-04-24 06:14 21.32522 -158.10538 2931 ft 186 kts 86°
2026-04-24 06:14 21.32522 -158.09179 2704 ft 178 kts 86°
2026-04-24 06:15 21.32523 -158.07861 2474 ft 176 kts 86°
2026-04-24 06:15 21.32523 -158.06591 2247 ft 159 kts 86°
2026-04-24 06:15 21.32521 -158.05497 2060 ft 138 kts 85°
2026-04-24 06:15 21.32522 -158.04519 1887 ft 125 kts 85°
2026-04-24 06:16 21.32523 -158.03613 1707 ft 119 kts 85°
2026-04-24 06:16 21.32522 -158.02747 1545 ft 115 kts 84°
2026-04-24 06:16 21.32524 -158.01887 1407 ft 116 kts 85°
2026-04-24 06:16 21.32524 -158.01033 1257 ft 117 kts 86°
2026-04-24 06:17 21.32528 -158.00138 1076 ft 118 kts 85°
2026-04-24 06:17 21.32506 -157.99277 920 ft 116 kts 84°
2026-04-24 06:17 21.32507 -157.98417 791 ft 112 kts 82°
2026-04-24 06:17 21.32507 -157.97576 703 ft 114 kts 87°
2026-04-24 06:18 21.32515 -157.96726 613 ft 114 kts 86°
2026-04-24 06:18 21.32526 -157.95892 403 ft 110 kts 82°
2026-04-24 06:18 21.32530 -157.95079 290 ft 111 kts 86°
2026-04-24 06:18 21.32533 -157.94246 108 ft 111 kts 86°
2026-04-24 06:19 21.32531 -157.93442 31 ft 99 kts 85°
2026-04-24 06:19 21.32535 -157.92912 27 ft 37 kts 92°
2026-04-24 06:19 21.32529 -157.92649 27 ft 39 kts 90°
2026-04-24 06:19 21.32536 -157.92364 27 ft 33 kts 82°
2026-04-24 06:20 21.32610 -157.92168 27 ft 25 kts 60°
2026-04-24 06:20 21.32668 -157.92063 26 ft 17 kts 59°
2026-04-24 06:20 21.32739 -157.91949 26 ft 20 kts 38°
2026-04-24 06:20 21.32877 -157.91910 27 ft 20 kts
2026-04-24 06:21 21.32939 -157.91922 27 ft 0 kts 340°
2026-04-24 06:21 21.32941 -157.91926 27 ft 3 kts 303°
2026-04-24 06:21 21.32950 -157.91960 27 ft 0 kts 279°